N352JM KPHX-KLAX

Flight info

Callsign N352JM
Flight time 1h 1m
Altitude 36000
Route KEENS3 WLVRN ESTWD HLYWD1
Aircraft B738/M-SDE2E3FGHIRWXY/LB1

Departure

Time 2026-05-05 16:11
Airport Phoenix Sky Harbor International Airport (KPHX)

Arrival

Time 2026-05-05 17:13
Airport Los Angeles International Airport (KLAX)
Time Latitude Longitude Altitude Speed Heading
2026-05-05 15:45 33.43415 -112.02521 1132 ft 0 kts
2026-05-05 15:57 33.43394 -112.02521 1135 ft 4 kts
2026-05-05 15:57 33.43369 -112.02527 1134 ft 4 kts 36°
2026-05-05 15:57 33.43357 -112.02532 1132 ft 4 kts 135°
2026-05-05 15:57 33.43356 -112.02531 1132 ft 1 kts 166°
2026-05-05 15:58 33.43357 -112.02532 1132 ft 0 kts 166°
2026-05-05 16:04 33.43356 -112.02532 1129 ft 1 kts 166°
2026-05-05 16:04 33.43331 -112.02523 1132 ft 9 kts 161°
2026-05-05 16:04 33.43277 -112.02474 1131 ft 10 kts 135°
2026-05-05 16:05 33.43228 -112.02408 1121 ft 11 kts 122°
2026-05-05 16:05 33.43216 -112.02311 1120 ft 14 kts 90°
2026-05-05 16:05 33.43215 -112.02189 1133 ft 15 kts 91°
2026-05-05 16:05 33.43215 -112.02062 1129 ft 15 kts 89°
2026-05-05 16:06 33.43216 -112.01940 1123 ft 14 kts 90°
2026-05-05 16:06 33.43215 -112.01811 1124 ft 18 kts 90°
2026-05-05 16:06 33.43215 -112.01643 1121 ft 23 kts 90°
2026-05-05 16:06 33.43215 -112.01426 1120 ft 28 kts 90°
2026-05-05 16:07 33.43216 -112.01192 1133 ft 27 kts 90°
2026-05-05 16:07 33.43216 -112.00973 1133 ft 25 kts 90°
2026-05-05 16:07 33.43217 -112.00770 1135 ft 24 kts 90°
2026-05-05 16:07 33.43214 -112.00579 1135 ft 23 kts 90°
2026-05-05 16:08 33.43215 -112.00393 1133 ft 22 kts 90°
2026-05-05 16:08 33.43215 -112.00213 1134 ft 21 kts 90°
2026-05-05 16:08 33.43215 -112.00035 1132 ft 22 kts 90°
2026-05-05 16:08 33.43214 -111.99845 1134 ft 23 kts 90°
2026-05-05 16:09 33.43214 -111.99658 1131 ft 22 kts 90°
2026-05-05 16:09 33.43213 -111.99494 1134 ft 19 kts 90°
2026-05-05 16:09 33.43205 -111.99368 1132 ft 9 kts 121°
2026-05-05 16:09 33.43201 -111.99361 1135 ft 0 kts 126°
2026-05-05 16:10 33.43166 -111.99335 1137 ft 11 kts 173°
2026-05-05 16:10 33.43105 -111.99370 1135 ft 11 kts 256°
2026-05-05 16:10 33.43104 -111.99388 1134 ft 0 kts 268°
2026-05-05 16:11 33.43104 -111.99566 1134 ft 60 kts 272°
2026-05-05 16:11 33.43118 -112.03213 2323 ft 187 kts 270°
2026-05-05 16:12 33.43105 -112.04711 3430 ft 183 kts 267°
2026-05-05 16:12 33.42683 -112.08190 4054 ft 245 kts 247°
2026-05-05 16:13 33.40752 -112.14173 6771 ft 263 kts 247°
2026-05-05 16:13 33.40113 -112.16242 7615 ft 268 kts 248°
2026-05-05 16:13 33.39470 -112.18328 7942 ft 267 kts 248°
2026-05-05 16:14 33.39441 -112.22809 8039 ft 277 kts 276°
2026-05-05 16:14 33.40147 -112.27361 9697 ft 279 kts 276°
2026-05-05 16:15 33.40857 -112.31973 11505 ft 285 kts 276°
2026-05-05 16:15 33.41570 -112.36718 13368 ft 293 kts 275°
2026-05-05 16:16 33.42296 -112.41608 15099 ft 299 kts 274°
2026-05-05 16:16 33.43023 -112.46518 17036 ft 300 kts 274°
2026-05-05 16:17 33.43754 -112.51490 18732 ft 306 kts 274°
2026-05-05 16:17 33.44119 -112.53970 19566 ft 306 kts 273°
2026-05-05 16:18 33.44853 -112.58981 21304 ft 305 kts 272°
2026-05-05 16:18 33.45127 -112.61490 22141 ft 302 kts 265°
2026-05-05 16:18 33.45163 -112.66501 23722 ft 303 kts 262°
2026-05-05 16:19 33.45160 -112.69028 24395 ft 302 kts 262°
2026-05-05 16:19 33.45176 -112.71532 25069 ft 300 kts 262°
2026-05-05 16:19 33.45233 -112.76510 26477 ft 298 kts 261°
2026-05-05 16:20 33.45746 -112.81467 27961 ft 313 kts 275°
2026-05-05 16:20 33.47396 -112.86298 29503 ft 310 kts 277°
2026-05-05 16:21 33.49089 -112.90962 30921 ft 299 kts 276°
2026-05-05 16:22 33.51459 -112.97588 33008 ft 277 kts 275°
2026-05-05 16:22 33.52910 -113.01694 34403 ft 258 kts 274°
2026-05-05 16:23 33.54250 -113.05525 35306 ft 252 kts 274°
2026-05-05 16:23 33.54929 -113.07538 35096 ft 272 kts 275°
2026-05-05 16:23 33.56452 -113.11988 35172 ft 300 kts 277°
2026-05-05 16:24 33.58116 -113.16768 35331 ft 320 kts 277°
2026-05-05 16:24 33.59886 -113.21853 35468 ft 339 kts 278°
2026-05-05 16:25 33.60806 -113.24500 35535 ft 348 kts 278°
2026-05-05 16:25 33.62712 -113.29993 35674 ft 365 kts 279°
2026-05-05 16:25 33.63684 -113.32797 35738 ft 373 kts 279°
2026-05-05 16:26 33.65709 -113.38644 35893 ft 386 kts 280°
2026-05-05 16:26 33.67762 -113.44544 35994 ft 372 kts 280°
2026-05-05 16:27 33.69706 -113.50136 36000 ft 358 kts 279°
2026-05-05 16:27 33.71601 -113.55686 36011 ft 360 kts 279°
2026-05-05 16:28 33.73503 -113.61260 35992 ft 361 kts 279°
2026-05-05 16:28 33.75427 -113.66902 35912 ft 370 kts 279°
2026-05-05 16:29 33.77400 -113.72674 35917 ft 373 kts 279°
2026-05-05 16:29 33.79365 -113.78432 35915 ft 375 kts 280°
2026-05-05 16:30 33.81338 -113.84238 35911 ft 375 kts 280°
2026-05-05 16:30 33.83307 -113.90054 35923 ft 375 kts 280°
2026-05-05 16:31 33.85273 -113.95875 35919 ft 376 kts 280°
2026-05-05 16:31 33.87242 -114.01715 35906 ft 376 kts 280°
2026-05-05 16:32 33.89211 -114.07561 35934 ft 377 kts 280°
2026-05-05 16:32 33.90979 -114.13447 35896 ft 366 kts 272°
2026-05-05 16:33 33.91987 -114.19426 35899 ft 364 kts 270°
2026-05-05 16:33 33.92937 -114.25429 35898 ft 365 kts 271°
2026-05-05 16:34 33.93922 -114.31437 35907 ft 366 kts 271°
2026-05-05 16:34 33.94924 -114.37423 35897 ft 367 kts 271°
2026-05-05 16:35 33.95941 -114.43475 35905 ft 369 kts 272°
2026-05-05 16:35 33.96961 -114.49551 35899 ft 371 kts 272°
2026-05-05 16:36 33.97986 -114.55674 35905 ft 374 kts 272°
2026-05-05 16:36 33.99016 -114.61845 35901 ft 377 kts 272°
2026-05-05 16:37 34.00049 -114.68053 35909 ft 379 kts 272°
2026-05-05 16:37 34.01087 -114.74304 35905 ft 381 kts 272°
2026-05-05 16:38 34.02118 -114.80536 35905 ft 381 kts 272°
2026-05-05 16:38 34.03151 -114.86802 35902 ft 380 kts 272°
2026-05-05 16:39 34.04176 -114.93041 35898 ft 378 kts 272°
2026-05-05 16:39 34.05191 -114.99239 35901 ft 376 kts 272°
2026-05-05 16:40 34.06200 -115.05434 35915 ft 380 kts 274°
2026-05-05 16:40 34.07226 -115.11771 35917 ft 392 kts 275°
2026-05-05 16:41 34.08286 -115.18315 35920 ft 401 kts 275°
2026-05-05 16:41 34.09351 -115.24852 35904 ft 392 kts 275°
2026-05-05 16:42 34.10388 -115.31269 35924 ft 390 kts 275°
2026-05-05 16:42 34.11414 -115.37674 35917 ft 392 kts 275°
2026-05-05 16:43 34.12448 -115.44141 35922 ft 393 kts 275°
2026-05-05 16:43 34.13483 -115.50634 35925 ft 394 kts 275°
2026-05-05 16:44 34.14519 -115.57152 35929 ft 396 kts 275°
2026-05-05 16:44 34.15553 -115.63674 35923 ft 395 kts 275°
2026-05-05 16:45 34.16341 -115.70220 35913 ft 390 kts 263°
2026-05-05 16:45 34.15698 -115.76640 35943 ft 388 kts 259°
2026-05-05 16:46 34.15029 -115.83098 35854 ft 384 kts 260°
2026-05-05 16:46 34.14712 -115.86300 35456 ft 381 kts 260°
2026-05-05 16:46 34.14402 -115.89475 34962 ft 380 kts 260°
2026-05-05 16:47 34.14095 -115.92640 34491 ft 380 kts 260°
2026-05-05 16:47 34.13787 -115.95798 34114 ft 377 kts 260°
2026-05-05 16:47 34.13579 -115.97922 33788 ft 376 kts 260°
2026-05-05 16:47 34.13272 -116.01056 33183 ft 378 kts 261°
2026-05-05 16:48 34.12964 -116.04199 32743 ft 375 kts 261°
2026-05-05 16:48 34.12662 -116.07280 32294 ft 374 kts 261°
2026-05-05 16:48 34.12357 -116.10382 31898 ft 371 kts 261°
2026-05-05 16:48 34.12054 -116.13462 31499 ft 368 kts 261°
2026-05-05 16:49 34.11751 -116.16525 31115 ft 366 kts 261°
2026-05-05 16:49 34.11451 -116.19563 30723 ft 364 kts 261°
2026-05-05 16:49 34.11151 -116.22586 30347 ft 362 kts 261°
2026-05-05 16:49 34.10851 -116.25595 29872 ft 361 kts 261°
2026-05-05 16:50 34.10552 -116.28592 29420 ft 359 kts 262°
2026-05-05 16:50 34.10250 -116.31564 29005 ft 356 kts 261°
2026-05-05 16:50 34.09938 -116.34513 28592 ft 352 kts 261°
2026-05-05 16:50 34.09623 -116.37445 28184 ft 350 kts 261°
2026-05-05 16:51 34.09310 -116.40349 27757 ft 348 kts 261°
2026-05-05 16:51 34.08998 -116.43238 27343 ft 347 kts 262°
2026-05-05 16:51 34.08688 -116.46124 26936 ft 345 kts 262°
2026-05-05 16:51 34.08379 -116.48993 26555 ft 343 kts 262°
2026-05-05 16:52 34.08076 -116.51809 26180 ft 342 kts 262°
2026-05-05 16:52 34.07769 -116.54647 25793 ft 340 kts 262°
2026-05-05 16:52 34.07463 -116.57477 25415 ft 339 kts 262°
2026-05-05 16:52 34.07167 -116.60285 25089 ft 336 kts 263°
2026-05-05 16:53 34.06904 -116.63076 24753 ft 334 kts 263°
2026-05-05 16:53 34.06653 -116.65842 24449 ft 331 kts 263°
2026-05-05 16:53 34.06402 -116.68609 24063 ft 331 kts 263°
2026-05-05 16:53 34.06150 -116.71363 23663 ft 331 kts 263°
2026-05-05 16:54 34.05900 -116.74062 23359 ft 328 kts 263°
2026-05-05 16:54 34.05647 -116.76783 23034 ft 325 kts 263°
2026-05-05 16:54 34.05397 -116.79463 22736 ft 320 kts 263°
2026-05-05 16:54 34.05146 -116.82148 22237 ft 323 kts 263°
2026-05-05 16:55 34.04893 -116.84833 21859 ft 321 kts 263°
2026-05-05 16:55 34.04641 -116.87506 21535 ft 319 kts 263°
2026-05-05 16:55 34.04376 -116.90139 21029 ft 322 kts 262°
2026-05-05 16:55 34.04031 -116.92820 20605 ft 324 kts 261°
2026-05-05 16:56 34.03669 -116.95484 20307 ft 321 kts 261°
2026-05-05 16:56 34.03316 -116.98130 19994 ft 318 kts 261°
2026-05-05 16:56 34.02971 -117.00761 19666 ft 317 kts 261°
2026-05-05 16:56 34.02629 -117.03385 19331 ft 316 kts 262°
2026-05-05 16:57 34.02311 -117.06002 19023 ft 315 kts 262°
2026-05-05 16:57 34.02005 -117.08610 18714 ft 313 kts 262°
2026-05-05 16:57 34.01702 -117.11209 18422 ft 312 kts 262°
2026-05-05 16:57 34.01398 -117.13788 18101 ft 310 kts 262°
2026-05-05 16:58 34.01095 -117.16358 17776 ft 309 kts 262°
2026-05-05 16:58 34.00791 -117.18907 17526 ft 306 kts 262°
2026-05-05 16:58 34.00488 -117.21444 17188 ft 305 kts 263°
2026-05-05 16:58 34.00187 -117.23967 16854 ft 304 kts 263°
2026-05-05 16:59 33.99886 -117.26478 16535 ft 302 kts 263°
2026-05-05 16:59 33.99585 -117.28982 16228 ft 300 kts 263°
2026-05-05 16:59 33.99288 -117.31460 15906 ft 298 kts 263°
2026-05-05 16:59 33.98997 -117.33934 15589 ft 297 kts 263°
2026-05-05 17:00 33.98711 -117.36373 15316 ft 297 kts 263°
2026-05-05 17:00 33.98423 -117.38830 15071 ft 295 kts 263°
2026-05-05 17:00 33.98136 -117.41275 14826 ft 293 kts 263°
2026-05-05 17:00 33.97850 -117.43703 14546 ft 292 kts 263°
2026-05-05 17:01 33.97563 -117.46124 14230 ft 291 kts 263°
2026-05-05 17:01 33.97301 -117.48534 13914 ft 290 kts 268°
2026-05-05 17:01 33.97528 -117.50931 13602 ft 287 kts 283°
2026-05-05 17:01 33.97971 -117.53265 13323 ft 285 kts 283°
2026-05-05 17:02 33.98411 -117.55593 13006 ft 284 kts 283°
2026-05-05 17:02 33.98839 -117.57910 12723 ft 283 kts 283°
2026-05-05 17:02 33.99257 -117.60218 12423 ft 282 kts 282°
2026-05-05 17:02 33.99668 -117.62526 12133 ft 281 kts 282°
2026-05-05 17:03 34.00066 -117.64772 12074 ft 274 kts 282°
2026-05-05 17:03 34.00457 -117.66988 12035 ft 268 kts 282°
2026-05-05 17:03 34.00672 -117.69206 11998 ft 267 kts 268°
2026-05-05 17:03 34.00450 -117.71450 11782 ft 273 kts 264°
2026-05-05 17:04 34.00195 -117.73759 11246 ft 286 kts 264°
2026-05-05 17:04 33.99936 -117.76183 10674 ft 297 kts 264°
2026-05-05 17:04 33.99679 -117.78688 10133 ft 303 kts 264°
2026-05-05 17:04 33.99431 -117.81169 9987 ft 295 kts 264°
2026-05-05 17:05 33.99190 -117.83626 9358 ft 297 kts 264°
2026-05-05 17:05 33.98950 -117.86102 8559 ft 299 kts 264°
2026-05-05 17:05 33.98708 -117.88585 7783 ft 299 kts 264°
2026-05-05 17:05 33.98470 -117.91025 7249 ft 291 kts 264°
2026-05-05 17:06 33.98235 -117.93411 6833 ft 282 kts 264°
2026-05-05 17:06 33.98008 -117.95708 6504 ft 271 kts 264°
2026-05-05 17:06 33.97790 -117.97924 6235 ft 262 kts 263°
2026-05-05 17:06 33.97577 -118.00089 5972 ft 262 kts 264°
2026-05-05 17:07 33.97356 -118.02304 5687 ft 268 kts 264°
2026-05-05 17:07 33.97181 -118.04511 5351 ft 276 kts 265°
2026-05-05 17:07 33.96987 -118.06776 5014 ft 272 kts 264°
2026-05-05 17:07 33.96769 -118.08968 4692 ft 262 kts 263°
2026-05-05 17:08 33.96545 -118.11097 4542 ft 250 kts 263°
2026-05-05 17:08 33.96326 -118.13183 4223 ft 251 kts 263°
2026-05-05 17:08 33.96110 -118.15246 3893 ft 245 kts 263°
2026-05-05 17:08 33.95903 -118.17234 3569 ft 230 kts 263°
2026-05-05 17:09 33.95713 -118.19066 3275 ft 212 kts 263°
2026-05-05 17:09 33.95536 -118.20776 3004 ft 198 kts 262°
2026-05-05 17:09 33.95369 -118.22389 2746 ft 193 kts 262°
2026-05-05 17:09 33.95204 -118.23988 2494 ft 192 kts 262°
2026-05-05 17:10 33.95038 -118.25589 2239 ft 191 kts 262°
2026-05-05 17:10 33.94880 -118.27125 1997 ft 182 kts 262°
2026-05-05 17:10 33.94729 -118.28594 1754 ft 171 kts 262°
2026-05-05 17:10 33.94585 -118.29989 1514 ft 163 kts 263°
2026-05-05 17:11 33.94446 -118.31344 1309 ft 160 kts 262°
2026-05-05 17:11 33.94313 -118.32639 1120 ft 149 kts 262°
2026-05-05 17:11 33.94190 -118.33831 890 ft 140 kts 263°
2026-05-05 17:11 33.94076 -118.34948 728 ft 130 kts 263°
2026-05-05 17:12 33.93966 -118.36021 513 ft 128 kts 263°
2026-05-05 17:12 33.93859 -118.37068 358 ft 124 kts 265°
2026-05-05 17:12 33.93754 -118.38100 184 ft 124 kts 263°
2026-05-05 17:12 33.93654 -118.39079 121 ft 103 kts 263°
2026-05-05 17:13 33.93591 -118.39672 125 ft 40 kts 263°
2026-05-05 17:13 33.93566 -118.39919 125 ft 28 kts 261°
2026-05-05 17:13 33.93517 -118.40126 123 ft 23 kts 244°
2026-05-05 17:13 33.93453 -118.40181 122 ft 5 kts 161°
2026-05-05 17:14 33.93419 -118.40160 121 ft 6 kts 146°
2026-05-05 17:14 33.93381 -118.40139 122 ft 5 kts 182°
2026-05-05 17:14 33.93339 -118.40140 123 ft 6 kts 175°
2026-05-05 17:14 33.93331 -118.40139 122 ft 1 kts 174°
2026-05-05 17:15 33.93329 -118.40138 122 ft 0 kts 174°